Starlink 30338

operational
NORAD ID: 57718 Int'l Des: 2023-129 Owner: SPXS Country: US Constellation: starlink
LEOCIRCULAR

About Starlink 30338

Description loading...

Live Position

Loading 3D Globe...

Upcoming Passes

Altitude History

Altitude vs Time

uPlot chart will show altitude changes over time

Two-Line Element Set

1 57718U 23129W 26037.09513703 .00002535 00000-0 20267-3 0 9996
2 57718 43.0030 291.8117 0001387 267.8419 92.2265 15.02540857135906
Epoch: Feb 6, 2026 • Age: 8 hours

Current Status

Altitude 571.4 km
Velocity 7.58 km/s
Sub-Earth Point -43.09°S, 80.45°W
Launch Date Aug 27, 2023
Age 2.4 years
Type internet

Technical Details

Classification Payload
Mass 730.00 kg
Dry Mass 700.00 kg
Total Mass 730.00 kg
Length 0.30 m
Diameter 4.10 m
Span 29.00 m
Shape Box + pan
Manufacturer SPXS
Bus Type Starlink V2M
Phase Status In Orbit
Owner/State SPXS/US

Large Constellations

Loading constellations...